| time (UTC) | temp C | wind direction | speed KPH | gust KPH | rain 1hr cm | rain 24hr cm | rain mn cm | humidity % | barometer mb |
| 20260504045549 | 10 | 340 | 9.7 | 22.5 | 13.11 | 0.00 | 0.00 | ||
| 20260504044249 | 11 | 284 | 8.0 | 22.5 | 13.11 | 0.00 | 0.00 | ||
| 20260504042949 | 11 | 288 | 8.0 | 19.3 | 13.11 | 0.00 | 0.00 | ||
| 20260504041649 | 11 | 285 | 12.9 | 24.1 | 13.11 | 0.00 | 0.00 | ||
| 20260504040350 | 11 | 287 | 11.3 | 30.6 | 13.11 | 0.00 | 0.00 | ||
| 20260504035050 | 11 | 347 | 19.3 | 37.0 | 13.11 | 0.00 | 0.00 | ||
| 20260504033749 | 12 | 345 | 12.9 | 29.0 | 13.11 | 0.00 | 0.00 | ||
| 20260504032449 | 12 | 6 | 16.1 | 30.6 | 13.11 | 0.00 | 0.00 | ||
| 20260504031149 | 12 | 335 | 19.3 | 40.2 | 13.11 | 0.00 | 0.00 | ||
| 20260504025849 | 12 | 352 | 19.3 | 32.2 | 13.11 | 0.00 | 0.00 | ||
| 20260504024549 | 13 | 333 | 19.3 | 35.4 | 13.11 | 0.00 | 0.00 | ||
| 20260504023249 | 13 | 352 | 19.3 | 35.4 | 13.11 | 0.00 | 0.00 | ||
| 20260504021949 | 13 | 3 | 12.9 | 20.9 | 13.11 | 0.00 | 0.00 | ||
| 20260504020649 | 13 | 359 | 19.3 | 30.6 | 13.11 | 0.00 | 0.00 | ||
| 20260504015349 | 14 | 353 | 24.1 | 41.8 | 13.11 | 0.00 | 0.00 | ||
| 20260504014049 | 15 | 15 | 22.5 | 37.0 | 13.11 | 0.00 | 0.00 | ||
| 20260504012749 | 15 | 359 | 25.7 | 46.7 | 13.11 | 0.00 | 0.00 | ||
| 20260504011449 | 15 | 8 | 20.9 | 40.2 | 13.11 | 0.00 | 0.00 | ||
| 20260504010149 | 17 | 339 | 22.5 | 38.6 | 13.11 | 0.00 | 0.00 | ||
| 20260504004849 | 17 | 343 | 17.7 | 45.1 | 13.11 | 0.00 | 0.00 | ||
| 20260504003549 | 17 | 347 | 16.1 | 38.6 | 13.11 | 0.00 | 0.00 | ||
| 20260504002249 | 17 | 342 | 19.3 | 40.2 | 13.11 | 0.00 | 0.00 | ||
| 20260504000949 | 18 | 311 | 12.9 | 32.2 | 13.11 | 0.00 | 0.00 | ||
| 20260503235649 | 19 | 326 | 11.3 | 25.7 | 13.11 | 0.00 | 0.00 | ||
| 20260503234349 | 18 | 357 | 9.7 | 22.5 | 13.11 | 0.00 | 0.00 | ||
| 20260503233049 | 18 | 290 | 11.3 | 25.7 | 13.11 | 0.00 | 0.00 | ||
| 20260503231749 | 18 | 349 | 11.3 | 32.2 | 13.11 | 0.00 | 0.00 | ||
| 20260503230449 | 19 | 27 | 11.3 | 22.5 | 13.11 | 0.00 | 0.00 | ||
| 20260503225149 | 18 | 290 | 9.7 | 35.4 | 13.11 | 0.00 | 0.00 | ||
| 20260503223849 | 19 | 280 | 11.3 | 30.6 | 13.11 | 0.00 | 0.00 | ||
| 20260503222549 | 19 | 336 | 12.9 | 32.2 | 13.11 | 0.00 | 0.00 | ||
| 20260503221249 | 18 | 342 | 16.1 | 35.4 | 13.11 | 0.00 | 0.00 | ||
| 20260503215949 | 20 | 333 | 17.7 | 37.0 | 13.11 | 0.00 | 0.00 | ||
| 20260503214649 | 21 | 281 | 12.9 | 27.4 | 13.11 | 0.00 | 0.00 | ||
| 20260503213349 | 21 | 0 | 11.3 | 24.1 | 13.11 | 0.00 | 0.00 | ||
| 20260503212049 | 21 | 0 | 12.9 | 25.7 | 13.11 | 0.00 | 0.00 | ||
| 20260503210749 | 21 | 21 | 11.3 | 27.4 | 13.11 | 0.00 | 0.00 | ||
| 20260503205449 | 20 | 352 | 14.5 | 32.2 | 13.11 | 0.00 | 0.00 | ||
| 20260503204149 | 20 | 278 | 11.3 | 25.7 | 13.11 | 0.00 | 0.00 | ||
| 20260503201549 | 20 | 298 | 11.3 | 24.1 | 13.11 | 0.00 | 0.00 | ||
| 20260503200249 | 20 | 340 | 8.0 | 32.2 | 13.11 | 0.00 | 0.00 | ||
| 20260503194949 | 20 | 283 | 9.7 | 20.9 | 13.11 | 0.00 | 0.00 | ||
| 20260503193649 | 19 | 297 | 9.7 | 22.5 | 13.11 | 0.00 | 0.00 | ||
| 20260503192349 | 19 | 6 | 9.7 | 20.9 | 13.11 | 0.00 | 0.00 | ||
| 20260503191049 | 18 | 285 | 16.1 | 33.8 | 13.11 | 0.00 | 0.00 | ||
| 20260503185749 | 18 | 305 | 9.7 | 19.3 | 13.11 | 0.00 | 0.00 | ||
| 20260503184449 | 18 | 271 | 11.3 | 22.5 | 13.11 | 0.00 | 0.00 | ||
| 20260503183149 | 18 | 287 | 9.7 | 19.3 | 13.11 | 0.00 | 0.00 | ||
| 20260503181849 | 18 | 284 | 9.7 | 29.0 | 13.11 | 0.00 | 0.00 | ||
| 20260503180549 | 18 | 307 | 14.5 | 27.4 | 13.11 | 0.00 | 0.00 | ||
| 20260503175249 | 18 | 290 | 12.9 | 33.8 | 13.11 | 0.00 | 0.00 | ||
| 20260503173949 | 18 | 288 | 12.9 | 30.6 | 13.11 | 0.00 | 0.00 | ||
| 20260503172649 | 18 | 288 | 16.1 | 33.8 | 13.11 | 0.00 | 0.00 | ||
| 20260503171349 | 18 | 300 | 12.9 | 33.8 | 13.11 | 0.00 | 0.00 | ||
| 20260503150348 | 13 | 264 | 14.5 | 17.7 | 13.11 | 0.00 | 0.00 | ||
| 20260503130648 | 7 | 249 | 9.7 | 9.7 | 13.11 | 0.00 | 0.00 | ||
| 20260503120148 | 5 | 250 | 12.9 | 14.5 | 13.11 | 0.00 | 0.00 | ||
| 20260503080748 | 9 | 276 | 11.3 | 16.1 | 13.11 | 0.00 | 0.00 | ||
| 20260503072848 | 10 | 255 | 14.5 | 19.3 | 13.11 | 0.00 | 0.00 | ||
| 20260503071548 | 8 | 262 | 11.3 | 14.5 | 13.11 | 0.00 | 0.00 | ||
| 20260503070248 | 8 | 256 | 12.9 | 14.5 | 13.11 | 0.00 | 0.00 |